| time (UTC) | temp C | wind direction | speed KPH | gust KPH | rain 1hr cm | rain 24hr cm | rain mn cm | humidity % | barometer mb |
| 20260831200030 | 17 | 293 | 0.0 | 6.4 | 0.00 | 0.89 | 0.89 | 77 | 1019.2 |
| 20260831194552 | 17 | 223 | 0.0 | 4.8 | 0.00 | 0.89 | 0.89 | 78 | 1019.1 |
| 20260831193028 | 17 | 255 | 0.0 | 8.0 | 0.00 | 0.89 | 0.89 | 77 | 1019.0 |
| 20260831191526 | 17 | 161 | 0.0 | 4.8 | 0.00 | 0.89 | 0.89 | 77 | 1018.9 |
| 20260831190033 | 17 | 295 | 1.6 | 9.7 | 0.00 | 0.89 | 0.89 | 76 | 1018.8 |
| 20260831184524 | 18 | 256 | 0.0 | 3.2 | 0.00 | 0.89 | 0.89 | 78 | 1018.6 |
| 20260831183022 | 18 | 232 | 0.0 | 1.6 | 0.00 | 0.89 | 0.89 | 74 | 1018.4 |
| 20260831181521 | 19 | 233 | 0.0 | 4.8 | 0.00 | 0.89 | 0.89 | 70 | 1018.3 |
| 20260831180021 | 19 | 275 | 0.0 | 3.2 | 0.00 | 0.89 | 0.89 | 69 | 1018.0 |
| 20260831174531 | 19 | 275 | 0.0 | 1.6 | 0.00 | 0.89 | 0.89 | 67 | 1017.7 |
| 20260831173016 | 19 | 275 | 0.0 | 1.6 | 0.00 | 0.89 | 0.89 | 66 | 1017.4 |
| 20260831171512 | 20 | 274 | 0.0 | 8.0 | 0.00 | 0.89 | 0.89 | 65 | 1017.2 |
| 20260831170013 | 21 | 311 | 0.0 | 8.0 | 0.00 | 0.89 | 0.89 | 60 | 1017.1 |
| 20260831164510 | 22 | 136 | 0.0 | 9.7 | 0.00 | 0.89 | 0.89 | 55 | 1016.8 |
| 20260831163010 | 22 | 101 | 1.6 | 14.5 | 0.00 | 0.89 | 0.89 | 54 | 1016.7 |
| 20260831161511 | 22 | 273 | 0.0 | 4.8 | 0.00 | 0.89 | 0.89 | 55 | 1016.4 |
| 20260831160009 | 22 | 238 | 3.2 | 14.5 | 0.00 | 0.89 | 0.89 | 55 | 1016.6 |
| 20260831154513 | 23 | 276 | 1.6 | 8.0 | 0.00 | 0.89 | 0.89 | 53 | 1016.3 |
| 20260831153009 | 23 | 329 | 1.6 | 8.0 | 0.00 | 0.89 | 0.89 | 52 | 1016.3 |
| 20260831151508 | 24 | 272 | 3.2 | 14.5 | 0.00 | 0.89 | 0.89 | 48 | 1016.2 |
| 20260831150008 | 24 | 190 | 0.0 | 9.7 | 0.00 | 0.89 | 0.89 | 48 | 1016.0 |
| 20260831144506 | 24 | 265 | 1.6 | 12.9 | 0.00 | 0.89 | 0.89 | 47 | 1016.0 |
| 20260831143107 | 23 | 230 | 0.0 | 12.9 | 0.00 | 0.89 | 0.89 | 49 | 1016.1 |
| 20260831141505 | 23 | 313 | 0.0 | 9.7 | 0.00 | 0.89 | 0.89 | 46 | 1016.1 |
| 20260831140007 | 24 | 272 | 1.6 | 11.3 | 0.00 | 0.89 | 0.89 | 43 | 1016.1 |
| 20260831134505 | 25 | 292 | 3.2 | 11.3 | 0.00 | 0.89 | 0.89 | 43 | 1016.2 |
| 20260831133005 | 24 | 223 | 3.2 | 12.9 | 0.00 | 0.89 | 0.89 | 44 | 1016.4 |
| 20260831131605 | 23 | 246 | 0.0 | 4.8 | 0.00 | 0.89 | 0.89 | 50 | 1016.4 |
| 20260831130106 | 23 | 288 | 1.6 | 14.5 | 0.00 | 0.89 | 0.89 | 48 | 1016.5 |
| 20260831124608 | 23 | 311 | 0.0 | 17.7 | 0.00 | 0.89 | 0.89 | 53 | 1016.7 |
| 20260831123059 | 23 | 300 | 3.2 | 9.7 | 0.00 | 0.89 | 0.89 | 51 | 1016.7 |
| 20260831121555 | 23 | 295 | 1.6 | 9.7 | 0.00 | 0.89 | 0.89 | 52 | 1016.7 |
| 20260831120054 | 22 | 296 | 1.6 | 9.7 | 0.00 | 0.89 | 0.89 | 53 | 1016.8 |
| 20260831114557 | 22 | 322 | 1.6 | 12.9 | 0.00 | 0.89 | 0.89 | 53 | 1016.8 |
| 20260831113057 | 22 | 257 | 1.6 | 9.7 | 0.00 | 0.89 | 0.89 | 55 | 1016.7 |
| 20260831111556 | 23 | 248 | 3.2 | 9.7 | 0.00 | 0.89 | 0.89 | 54 | 1016.8 |
| 20260831110050 | 22 | 281 | 1.6 | 12.9 | 0.00 | 0.89 | 0.89 | 57 | 1016.9 |
| 20260831104549 | 22 | 300 | 0.0 | 9.7 | 0.00 | 0.89 | 0.89 | 57 | 1016.8 |
| 20260831103045 | 22 | 267 | 1.6 | 12.9 | 0.00 | 0.89 | 0.89 | 61 | 1016.8 |
| 20260831101545 | 22 | 300 | 3.2 | 17.7 | 0.00 | 0.89 | 0.89 | 59 | 1016.8 |
| 20260831100100 | 21 | 236 | 3.2 | 9.7 | 0.00 | 0.89 | 0.89 | 64 | 1016.8 |
| 20260831094540 | 21 | 157 | 1.6 | 8.0 | 0.00 | 0.89 | 0.89 | 68 | 1016.8 |
| 20260831093042 | 21 | 300 | 1.6 | 8.0 | 0.00 | 0.89 | 0.89 | 69 | 1016.8 |
| 20260831091543 | 20 | 313 | 0.0 | 11.3 | 0.00 | 0.89 | 0.89 | 71 | 1016.8 |
| 20260831090035 | 20 | 267 | 1.6 | 11.3 | 0.00 | 0.89 | 0.89 | 72 | 1016.8 |
| 20260831084530 | 20 | 312 | 1.6 | 9.7 | 0.00 | 0.89 | 0.89 | 78 | 1016.7 |
| 20260831083027 | 18 | 266 | 0.0 | 6.4 | 0.00 | 0.89 | 0.89 | 82 | 1016.6 |
| 20260831081526 | 18 | 255 | 0.0 | 3.2 | 0.00 | 0.89 | 0.89 | 83 | 1016.7 |
| 20260831080027 | 18 | 274 | 0.0 | 4.8 | 0.00 | 0.89 | 0.89 | 81 | 1016.6 |
| 20260831074524 | 18 | 248 | 0.0 | 9.7 | 0.00 | 0.89 | 0.89 | 80 | 1016.5 |
| 20260831073034 | 18 | 286 | 0.0 | 6.4 | 0.00 | 0.89 | 0.89 | 83 | 1016.4 |
| 20260831071522 | 17 | 290 | 0.0 | 8.0 | 0.00 | 0.89 | 0.89 | 86 | 1016.4 |
| 20260831070021 | 17 | 286 | 0.0 | 4.8 | 0.00 | 0.89 | 0.89 | 87 | 1016.3 |
| 20260831064523 | 17 | 298 | 0.0 | 4.8 | 0.00 | 0.89 | 0.89 | 89 | 1016.1 |
| 20260831063024 | 17 | 298 | 0.0 | 6.4 | 0.00 | 0.89 | 0.89 | 91 | 1016.0 |
| 20260831061517 | 16 | 294 | 0.0 | 0.0 | 0.00 | 0.89 | 0.89 | 94 | 1015.9 |
| 20260831060016 | 16 | 294 | 0.0 | 3.2 | 0.00 | 0.89 | 0.89 | 94 | 1015.8 |
| 20260831054515 | 16 | 288 | 0.0 | 8.0 | 0.00 | 0.89 | 0.89 | 95 | 1015.8 |
| 20260831053015 | 16 | 248 | 0.0 | 4.8 | 0.00 | 0.89 | 0.89 | 95 | 1015.7 |
| 20260831051513 | 16 | 304 | 0.0 | 1.6 | 0.00 | 0.89 | 0.89 | 96 | 1015.6 |
| 20260831050012 | 16 | 304 | 0.0 | 0.0 | 0.00 | 0.89 | 0.89 | 96 | 1015.5 |
| 20260831044512 | 16 | 304 | 0.0 | 1.6 | 0.00 | 0.89 | 0.89 | 96 | 1015.3 |
| 20260831043013 | 16 | 304 | 0.0 | 1.6 | 0.00 | 0.89 | 0.89 | 96 | 1015.2 |
| 20260831041508 | 16 | 304 | 0.0 | 0.0 | 0.00 | 0.89 | 0.89 | 96 | 1015.0 |
| 20260831040009 | 16 | 304 | 0.0 | 0.0 | 0.00 | 0.89 | 0.89 | 95 | 1014.9 |
| 20260831034505 | 16 | 304 | 0.0 | 0.0 | 0.00 | 0.89 | 0.89 | 96 | 1014.7 |
| 20260831033006 | 16 | 304 | 0.0 | 0.0 | 0.00 | 0.89 | 0.89 | 95 | 1014.8 |
| 20260831031505 | 16 | 304 | 0.0 | 0.0 | 0.03 | 0.89 | 0.89 | 96 | 1014.6 |
| 20260831030003 | 16 | 304 | 0.0 | 0.0 | 0.03 | 0.89 | 0.89 | 95 | 1014.4 |
| 20260831024503 | 16 | 304 | 0.0 | 0.0 | 0.08 | 0.89 | 0.89 | 95 | 1014.2 |
| 20260831023002 | 16 | 304 | 0.0 | 0.0 | 0.13 | 0.89 | 0.89 | 95 | 1014.3 |
| 20260831021501 | 16 | 304 | 0.0 | 0.0 | 0.15 | 0.86 | 0.86 | 95 | 1014.0 |
| 20260831020001 | 16 | 304 | 0.0 | 0.0 | 0.30 | 0.86 | 0.86 | 94 | 1014.1 |
| 20260831014604 | 16 | 304 | 0.0 | 0.0 | 0.33 | 0.79 | 0.79 | 94 | 1014.4 |
| 20260831013100 | 16 | 304 | 0.0 | 0.0 | 0.76 | 0.76 | 0.76 | 93 | 1014.6 |
| 20260831011559 | 16 | 304 | 0.0 | 0.0 | 0.71 | 0.71 | 0.71 | 93 | 1014.4 |
| 20260831010110 | 17 | 303 | 0.0 | 0.0 | 0.56 | 0.56 | 0.56 | 92 | 1014.6 |
| 20260831004555 | 17 | 288 | 1.6 | 14.5 | 0.46 | 0.46 | 0.46 | 89 | 1014.7 |
| 20260831003103 | 18 | 76 | 0.0 | 0.0 | 0.00 | 0.00 | 0.00 | 82 | 1012.9 |
| 20260831001550 | 18 | 76 | 0.0 | 1.6 | 0.00 | 0.00 | 0.00 | 82 | 1012.6 |
| 20260831000052 | 18 | 76 | 0.0 | 3.2 | 0.00 | 0.00 | 0.00 | 82 | 1012.5 |
| 20260830234554 | 18 | 74 | 0.0 | 3.2 | 0.00 | 0.00 | 0.00 | 82 | 1012.8 |
| 20260830233047 | 18 | 74 | 0.0 | 3.2 | 0.00 | 0.00 | 0.00 | 82 | 1012.9 |
| 20260830231548 | 18 | 78 | 0.0 | 3.2 | 0.00 | 0.00 | 0.00 | 83 | 1013.0 |
| 20260830230047 | 17 | 355 | 0.0 | 0.0 | 0.00 | 0.00 | 0.00 | 85 | 1013.4 |
| 20260830224550 | 17 | 355 | 0.0 | 0.0 | 0.00 | 0.00 | 0.00 | 85 | 1013.5 |
| 20260830223038 | 17 | 355 | 0.0 | 0.0 | 0.00 | 0.00 | 0.00 | 84 | 1013.6 |
| 20260830221539 | 17 | 355 | 0.0 | 0.0 | 0.00 | 0.00 | 0.00 | 84 | 1013.7 |
| 20260830220037 | 17 | 355 | 0.0 | 0.0 | 0.00 | 0.00 | 0.00 | 85 | 1013.7 |
| 20260830214534 | 17 | 355 | 0.0 | 0.0 | 0.00 | 0.00 | 0.00 | 84 | 1014.0 |
| 20260830213033 | 17 | 355 | 0.0 | 0.0 | 0.00 | 0.00 | 0.00 | 83 | 1014.0 |
| 20260830211533 | 17 | 348 | 0.0 | 0.0 | 0.00 | 0.00 | 0.00 | 84 | 1013.9 |
| 20260830210032 | 17 | 286 | 0.0 | 1.6 | 0.00 | 0.00 | 0.00 | 84 | 1013.9 |
| 20260830204535 | 17 | 286 | 0.0 | 0.0 | 0.00 | 0.00 | 0.00 | 82 | 1014.0 |
| 20260830203032 | 18 | 286 | 0.0 | 0.0 | 0.00 | 0.00 | 0.00 | 82 | 1014.2 |
| 20260830201530 | 18 | 286 | 0.0 | 0.0 | 0.00 | 0.00 | 0.00 | 83 | 1014.1 |